| time (UTC) | temp F | wind direction | speed MPH | gust MPH | rain 1hr in | rain 24hr in | rain mn in | humidity % | barometer mb |
| 20260905190404 | 79 | 218 | 6.0 | 12.0 | 0.00 | 0.00 | 0.00 | 9 | 1018.9 |
| 20260905185904 | 79 | 245 | 5.0 | 13.0 | 0.00 | 0.00 | 0.00 | 8 | 1019.0 |
| 20260905185404 | 79 | 223 | 3.0 | 15.0 | 0.00 | 0.00 | 0.00 | 9 | 1019.0 |
| 20260905184904 | 78 | 235 | 12.0 | 24.0 | 0.00 | 0.00 | 0.00 | 8 | 1019.1 |
| 20260905184404 | 78 | 224 | 8.0 | 15.0 | 0.00 | 0.00 | 0.00 | 8 | 1019.1 |
| 20260905183404 | 78 | 237 | 8.0 | 17.0 | 0.00 | 0.00 | 0.00 | 9 | 1019.2 |
| 20260905182904 | 78 | 219 | 7.0 | 15.0 | 0.00 | 0.00 | 0.00 | 10 | 1019.3 |
| 20260905181904 | 78 | 212 | 9.0 | 18.0 | 0.00 | 0.00 | 0.00 | 10 | 1019.3 |
| 20260905181404 | 78 | 229 | 3.0 | 9.0 | 0.00 | 0.00 | 0.00 | 11 | 1019.3 |
| 20260905180904 | 78 | 240 | 0.0 | 14.0 | 0.00 | 0.00 | 0.00 | 12 | 1019.3 |
| 20260905180404 | 78 | 226 | 2.0 | 9.0 | 0.00 | 0.00 | 0.00 | 13 | 1019.4 |
| 20260905175903 | 77 | 232 | 5.0 | 12.0 | 0.00 | 0.00 | 0.00 | 13 | 1019.4 |
| 20260905175404 | 77 | 237 | 2.0 | 9.0 | 0.00 | 0.00 | 0.00 | 15 | 1019.5 |
| 20260905174404 | 76 | 231 | 2.0 | 8.0 | 0.00 | 0.00 | 0.00 | 14 | 1019.5 |
| 20260905173904 | 76 | 213 | 3.0 | 12.0 | 0.00 | 0.00 | 0.00 | 15 | 1019.5 |
| 20260905173404 | 76 | 227 | 3.0 | 12.0 | 0.00 | 0.00 | 0.00 | 15 | 1019.5 |
| 20260905172904 | 75 | 234 | 4.0 | 10.0 | 0.00 | 0.00 | 0.00 | 15 | 1019.6 |
| 20260905172404 | 75 | 233 | 3.0 | 9.0 | 0.00 | 0.00 | 0.00 | 17 | 1019.6 |
| 20260905171904 | 74 | 247 | 1.0 | 3.0 | 0.00 | 0.00 | 0.00 | 18 | 1019.6 |
| 20260905171404 | 74 | 337 | 0.0 | 0.0 | 0.00 | 0.00 | 0.00 | 23 | 1019.6 |
| 20260905170904 | 73 | 337 | 0.0 | 0.0 | 0.00 | 0.00 | 0.00 | 23 | 1019.7 |
| 20260905165906 | 71 | 0 | 0.0 | 0.0 | 0.00 | 0.00 | 0.00 | 28 | 1019.9 |
| 20260905165404 | 70 | 0 | 0.0 | 0.0 | 0.00 | 0.00 | 0.00 | 29 | 1019.9 |
| 20260905164904 | 69 | 0 | 0.0 | 0.0 | 0.00 | 0.00 | 0.00 | 32 | 1019.9 |
| 20260905164404 | 68 | 0 | 0.0 | 0.0 | 0.00 | 0.00 | 0.00 | 31 | 1019.9 |
| 20260905162904 | 65 | 0 | 0.0 | 0.0 | 0.00 | 0.00 | 0.00 | 34 | 1020.0 |
| 20260905162404 | 64 | 0 | 0.0 | 0.0 | 0.00 | 0.00 | 0.00 | 35 | 1020.0 |
| 20260905161904 | 64 | 0 | 0.0 | 0.0 | 0.00 | 0.00 | 0.00 | 36 | 1020.0 |
| 20260905160904 | 62 | 0 | 0.0 | 0.0 | 0.00 | 0.00 | 0.00 | 40 | 1020.0 |
| 20260905160404 | 61 | 0 | 0.0 | 0.0 | 0.00 | 0.00 | 0.00 | 42 | 1020.1 |
| 20260905155904 | 60 | 0 | 0.0 | 0.0 | 0.00 | 0.00 | 0.00 | 43 | 1020.1 |
| 20260905155404 | 59 | 0 | 0.0 | 0.0 | 0.00 | 0.00 | 0.00 | 46 | 1020.1 |
| 20260905154904 | 58 | 0 | 0.0 | 0.0 | 0.00 | 0.00 | 0.00 | 46 | 1020.1 |
| 20260905154404 | 57 | 0 | 0.0 | 0.0 | 0.00 | 0.00 | 0.00 | 47 | 1020.2 |
| 20260905153904 | 56 | 0 | 0.0 | 0.0 | 0.00 | 0.00 | 0.00 | 50 | 1020.2 |
| 20260905153405 | 56 | 0 | 0.0 | 0.0 | 0.00 | 0.00 | 0.00 | 52 | 1020.2 |
| 20260905152904 | 54 | 0 | 0.0 | 0.0 | 0.00 | 0.00 | 0.00 | 55 | 1020.3 |
| 20260905152404 | 53 | 0 | 0.0 | 0.0 | 0.00 | 0.00 | 0.00 | 57 | 1020.3 |
| 20260905151904 | 52 | 0 | 0.0 | 0.0 | 0.00 | 0.00 | 0.00 | 58 | 1020.3 |
| 20260905145404 | 47 | 0 | 0.0 | 0.0 | 0.00 | 0.00 | 0.00 | 67 | 1020.5 |
| 20260905144904 | 46 | 0 | 0.0 | 0.0 | 0.00 | 0.00 | 0.00 | 68 | 1020.6 |
| 20260905144404 | 46 | 0 | 0.0 | 0.0 | 0.00 | 0.00 | 0.00 | 68 | 1020.6 |
| 20260905143903 | 45 | 0 | 0.0 | 0.0 | 0.00 | 0.00 | 0.00 | 69 | 1020.7 |
| 20260905142904 | 45 | 0 | 0.0 | 0.0 | 0.00 | 0.00 | 0.00 | 70 | 1020.6 |
| 20260905142404 | 44 | 0 | 0.0 | 0.0 | 0.00 | 0.00 | 0.00 | 71 | 1020.6 |
| 20260905135904 | 43 | 0 | 0.0 | 0.0 | 0.00 | 0.00 | 0.00 | 71 | 1020.6 |
| 20260905135404 | 43 | 0 | 0.0 | 0.0 | 0.00 | 0.00 | 0.00 | 71 | 1020.5 |
| 20260905134904 | 43 | 0 | 0.0 | 0.0 | 0.00 | 0.00 | 0.00 | 71 | 1020.5 |
| 20260905134404 | 43 | 0 | 0.0 | 0.0 | 0.00 | 0.00 | 0.00 | 71 | 1020.5 |
| 20260905133904 | 43 | 0 | 0.0 | 0.0 | 0.00 | 0.00 | 0.00 | 71 | 1020.5 |
| 20260905133404 | 43 | 0 | 0.0 | 0.0 | 0.00 | 0.00 | 0.00 | 69 | 1020.4 |
| 20260905132904 | 43 | 0 | 0.0 | 0.0 | 0.00 | 0.00 | 0.00 | 69 | 1020.3 |
| 20260905131904 | 43 | 0 | 0.0 | 0.0 | 0.00 | 0.00 | 0.00 | 70 | 1020.2 |
| 20260905131404 | 43 | 0 | 0.0 | 0.0 | 0.00 | 0.00 | 0.00 | 70 | 1020.1 |
| 20260905130404 | 43 | 0 | 0.0 | 0.0 | 0.00 | 0.00 | 0.00 | 69 | 1020.1 |
| 20260905125904 | 44 | 0 | 0.0 | 0.0 | 0.00 | 0.00 | 0.00 | 68 | 1020.0 |
| 20260905125404 | 44 | 0 | 0.0 | 0.0 | 0.00 | 0.00 | 0.00 | 67 | 1020.0 |
| 20260905124404 | 44 | 0 | 0.0 | 0.0 | 0.00 | 0.00 | 0.00 | 68 | 1019.9 |
| 20260905123404 | 45 | 0 | 0.0 | 0.0 | 0.00 | 0.00 | 0.00 | 67 | 1019.7 |
| 20260905122904 | 45 | 0 | 0.0 | 0.0 | 0.00 | 0.00 | 0.00 | 67 | 1019.7 |
| 20260905122404 | 45 | 0 | 0.0 | 0.0 | 0.00 | 0.00 | 0.00 | 67 | 1019.6 |
| 20260905121904 | 45 | 0 | 0.0 | 0.0 | 0.00 | 0.00 | 0.00 | 67 | 1019.5 |
| 20260905121404 | 45 | 0 | 0.0 | 0.0 | 0.00 | 0.00 | 0.00 | 67 | 1019.5 |
| 20260905120904 | 45 | 0 | 0.0 | 0.0 | 0.00 | 0.00 | 0.00 | 67 | 1019.5 |
| 20260905120404 | 45 | 0 | 0.0 | 0.0 | 0.00 | 0.00 | 0.00 | 67 | 1019.5 |
| 20260905115904 | 45 | 0 | 0.0 | 0.0 | 0.00 | 0.00 | 0.00 | 67 | 1019.4 |
| 20260905115404 | 45 | 0 | 0.0 | 0.0 | 0.00 | 0.00 | 0.00 | 67 | 1019.5 |
| 20260905114904 | 46 | 0 | 0.0 | 0.0 | 0.00 | 0.00 | 0.00 | 66 | 1019.4 |
| 20260905114404 | 46 | 0 | 0.0 | 0.0 | 0.00 | 0.00 | 0.00 | 66 | 1019.4 |
| 20260905113904 | 46 | 0 | 0.0 | 0.0 | 0.00 | 0.00 | 0.00 | 66 | 1019.5 |
| 20260905112904 | 46 | 0 | 0.0 | 0.0 | 0.00 | 0.00 | 0.00 | 64 | 1019.5 |
| 20260905112404 | 46 | 0 | 0.0 | 0.0 | 0.00 | 0.00 | 0.00 | 64 | 1019.5 |
| 20260905111904 | 46 | 0 | 0.0 | 0.0 | 0.00 | 0.00 | 0.00 | 64 | 1019.3 |
| 20260905111404 | 46 | 0 | 0.0 | 0.0 | 0.00 | 0.00 | 0.00 | 64 | 1019.4 |
| 20260905110904 | 46 | 0 | 0.0 | 0.0 | 0.00 | 0.00 | 0.00 | 63 | 1019.3 |
| 20260905110404 | 46 | 0 | 0.0 | 0.0 | 0.00 | 0.00 | 0.00 | 62 | 1019.3 |
| 20260905105904 | 47 | 0 | 0.0 | 0.0 | 0.00 | 0.00 | 0.00 | 62 | 1019.2 |
| 20260905105404 | 47 | 0 | 0.0 | 0.0 | 0.00 | 0.00 | 0.00 | 62 | 1019.2 |
| 20260905104904 | 47 | 0 | 0.0 | 0.0 | 0.00 | 0.00 | 0.00 | 62 | 1019.2 |
| 20260905104404 | 47 | 0 | 0.0 | 0.0 | 0.00 | 0.00 | 0.00 | 61 | 1019.2 |
| 20260905102904 | 47 | 0 | 0.0 | 0.0 | 0.00 | 0.00 | 0.00 | 61 | 1019.1 |
| 20260905101404 | 48 | 0 | 0.0 | 0.0 | 0.00 | 0.00 | 0.00 | 60 | 1018.9 |
| 20260905100904 | 48 | 0 | 0.0 | 0.0 | 0.00 | 0.00 | 0.00 | 61 | 1018.9 |
| 20260905095904 | 48 | 0 | 0.0 | 0.0 | 0.00 | 0.00 | 0.00 | 61 | 1018.7 |
| 20260905094904 | 48 | 0 | 0.0 | 0.0 | 0.00 | 0.00 | 0.00 | 61 | 1018.7 |
| 20260905094404 | 48 | 0 | 0.0 | 0.0 | 0.00 | 0.00 | 0.00 | 61 | 1018.7 |
| 20260905093904 | 48 | 0 | 0.0 | 0.0 | 0.00 | 0.00 | 0.00 | 60 | 1018.7 |
| 20260905093404 | 48 | 0 | 0.0 | 0.0 | 0.00 | 0.00 | 0.00 | 59 | 1018.6 |
| 20260905092904 | 48 | 0 | 0.0 | 0.0 | 0.00 | 0.00 | 0.00 | 58 | 1018.6 |
| 20260905092404 | 49 | 0 | 0.0 | 0.0 | 0.00 | 0.00 | 0.00 | 58 | 1018.7 |
| 20260905091904 | 49 | 0 | 0.0 | 0.0 | 0.00 | 0.00 | 0.00 | 57 | 1018.8 |
| 20260905091404 | 49 | 0 | 0.0 | 0.0 | 0.00 | 0.00 | 0.00 | 56 | 1018.8 |
| 20260905090904 | 49 | 0 | 0.0 | 0.0 | 0.00 | 0.00 | 0.00 | 55 | 1018.7 |
| 20260905090404 | 49 | 0 | 0.0 | 0.0 | 0.00 | 0.00 | 0.00 | 56 | 1018.6 |
| 20260905085904 | 50 | 0 | 0.0 | 0.0 | 0.00 | 0.00 | 0.00 | 56 | 1018.7 |
| 20260905085404 | 50 | 0 | 0.0 | 0.0 | 0.00 | 0.00 | 0.00 | 55 | 1018.7 |
| 20260905084904 | 50 | 0 | 0.0 | 0.0 | 0.00 | 0.00 | 0.00 | 55 | 1018.5 |
| 20260905084404 | 50 | 0 | 0.0 | 0.0 | 0.00 | 0.00 | 0.00 | 52 | 1018.5 |
| 20260905083904 | 50 | 0 | 0.0 | 0.0 | 0.00 | 0.00 | 0.00 | 52 | 1018.5 |
| 20260905083404 | 51 | 0 | 0.0 | 0.0 | 0.00 | 0.00 | 0.00 | 52 | 1018.6 |
| 20260905082904 | 51 | 0 | 0.0 | 0.0 | 0.00 | 0.00 | 0.00 | 52 | 1018.6 |
| 20260905082404 | 51 | 0 | 0.0 | 0.0 | 0.00 | 0.00 | 0.00 | 52 | 1018.6 |
| 20260905081904 | 51 | 0 | 0.0 | 0.0 | 0.00 | 0.00 | 0.00 | 52 | 1018.6 |
| 20260905081404 | 51 | 0 | 0.0 | 0.0 | 0.00 | 0.00 | 0.00 | 52 | 1018.4 |
| 20260905080904 | 51 | 0 | 0.0 | 0.0 | 0.00 | 0.00 | 0.00 | 52 | 1018.4 |
| 20260905080404 | 51 | 0 | 0.0 | 0.0 | 0.00 | 0.00 | 0.00 | 52 | 1018.2 |
| 20260905075904 | 51 | 0 | 0.0 | 0.0 | 0.00 | 0.00 | 0.00 | 52 | 1018.5 |
| 20260905075404 | 51 | 0 | 0.0 | 0.0 | 0.00 | 0.00 | 0.00 | 52 | 1018.3 |
| 20260905074404 | 51 | 0 | 0.0 | 0.0 | 0.00 | 0.00 | 0.00 | 52 | 1018.2 |
| 20260905073904 | 51 | 5 | 0.0 | 0.0 | 0.00 | 0.00 | 0.00 | 51 | 1018.2 |
| 20260905073404 | 51 | 5 | 0.0 | 0.0 | 0.00 | 0.00 | 0.00 | 52 | 1018.0 |
| 20260905072404 | 50 | 11 | 0.0 | 3.0 | 0.00 | 0.00 | 0.00 | 54 | 1018.3 |
| 20260905071904 | 49 | 346 | 0.0 | 3.0 | 0.00 | 0.00 | 0.00 | 57 | 1018.1 |
| 20260905071404 | 49 | 310 | 0.0 | 0.0 | 0.00 | 0.00 | 0.00 | 58 | 1017.9 |
| 20260905070904 | 49 | 225 | 0.0 | 0.0 | 0.00 | 0.00 | 0.00 | 59 | 1017.9 |
| 20260905070404 | 49 | 225 | 0.0 | 0.0 | 0.00 | 0.00 | 0.00 | 59 | 1018.4 |
| 20260905065904 | 48 | 225 | 0.0 | 0.0 | 0.00 | 0.00 | 0.00 | 59 | 1018.7 |
| 20260905064904 | 48 | 225 | 0.0 | 0.0 | 0.00 | 0.00 | 0.00 | 59 | 1018.0 |
| 20260905064404 | 48 | 225 | 0.0 | 0.0 | 0.00 | 0.00 | 0.00 | 58 | 1017.9 |
| 20260905063904 | 48 | 225 | 0.0 | 0.0 | 0.00 | 0.00 | 0.00 | 58 | 1017.7 |
| 20260905063404 | 48 | 225 | 0.0 | 0.0 | 0.00 | 0.00 | 0.00 | 57 | 1017.8 |
| 20260905062904 | 48 | 225 | 0.0 | 0.0 | 0.00 | 0.00 | 0.00 | 57 | 1017.8 |
| 20260905062405 | 48 | 225 | 0.0 | 0.0 | 0.00 | 0.00 | 0.00 | 56 | 1017.8 |
| 20260905061904 | 48 | 225 | 0.0 | 0.0 | 0.00 | 0.00 | 0.00 | 56 | 1017.8 |
| 20260905061404 | 48 | 225 | 0.0 | 0.0 | 0.00 | 0.00 | 0.00 | 56 | 1017.8 |
| 20260905060404 | 49 | 225 | 0.0 | 0.0 | 0.00 | 0.00 | 0.00 | 57 | 1017.8 |
| 20260905055904 | 49 | 225 | 0.0 | 0.0 | 0.00 | 0.00 | 0.00 | 57 | 1017.7 |
| 20260905055404 | 49 | 225 | 0.0 | 0.0 | 0.00 | 0.00 | 0.00 | 57 | 1017.6 |
| 20260905054904 | 49 | 225 | 0.0 | 0.0 | 0.00 | 0.00 | 0.00 | 58 | 1017.7 |
| 20260905054404 | 49 | 225 | 0.0 | 0.0 | 0.00 | 0.00 | 0.00 | 57 | 1017.5 |
| 20260905053404 | 50 | 225 | 0.0 | 0.0 | 0.00 | 0.00 | 0.00 | 56 | 1017.5 |
| 20260905052904 | 50 | 225 | 0.0 | 0.0 | 0.00 | 0.00 | 0.00 | 56 | 1017.4 |
| 20260905051904 | 50 | 225 | 0.0 | 0.0 | 0.00 | 0.00 | 0.00 | 56 | 1017.5 |
| 20260905050904 | 50 | 225 | 0.0 | 0.0 | 0.00 | 0.00 | 0.00 | 55 | 1017.3 |
| 20260905050404 | 50 | 225 | 0.0 | 0.0 | 0.00 | 0.00 | 0.00 | 56 | 1017.5 |
| 20260905045904 | 50 | 225 | 0.0 | 0.0 | 0.00 | 0.00 | 0.00 | 54 | 1017.5 |
| 20260905045404 | 51 | 225 | 0.0 | 0.0 | 0.00 | 0.00 | 0.00 | 55 | 1017.5 |
| 20260905044905 | 51 | 225 | 0.0 | 0.0 | 0.00 | 0.00 | 0.00 | 54 | 1017.5 |
| 20260905043904 | 51 | 225 | 0.0 | 0.0 | 0.00 | 0.00 | 0.00 | 53 | 1017.5 |
| 20260905043404 | 51 | 225 | 0.0 | 0.0 | 0.00 | 0.00 | 0.00 | 51 | 1017.6 |
| 20260905042904 | 52 | 225 | 0.0 | 0.0 | 0.00 | 0.00 | 0.00 | 50 | 1017.6 |
| 20260905042404 | 52 | 225 | 0.0 | 0.0 | 0.00 | 0.00 | 0.00 | 51 | 1017.6 |
| 20260905041905 | 53 | 225 | 0.0 | 0.0 | 0.00 | 0.00 | 0.00 | 52 | 1017.5 |
| 20260905041404 | 53 | 225 | 0.0 | 0.0 | 0.00 | 0.00 | 0.00 | 52 | 1017.6 |
| 20260905040904 | 53 | 225 | 0.0 | 0.0 | 0.00 | 0.00 | 0.00 | 49 | 1017.6 |
| 20260905040404 | 54 | 225 | 0.0 | 0.0 | 0.00 | 0.00 | 0.00 | 48 | 1017.6 |
| 20260905035904 | 54 | 225 | 0.0 | 0.0 | 0.00 | 0.00 | 0.00 | 49 | 1017.5 |
| 20260905035404 | 54 | 225 | 0.0 | 0.0 | 0.00 | 0.00 | 0.00 | 49 | 1017.6 |
| 20260905034904 | 55 | 225 | 0.0 | 0.0 | 0.00 | 0.00 | 0.00 | 47 | 1017.5 |
| 20260905034404 | 55 | 225 | 0.0 | 0.0 | 0.00 | 0.00 | 0.00 | 46 | 1017.5 |
| 20260905033904 | 56 | 225 | 0.0 | 0.0 | 0.00 | 0.00 | 0.00 | 46 | 1017.6 |
| 20260905033404 | 56 | 225 | 0.0 | 0.0 | 0.00 | 0.00 | 0.00 | 45 | 1017.5 |
| 20260905032904 | 57 | 225 | 0.0 | 0.0 | 0.00 | 0.00 | 0.00 | 45 | 1017.4 |
| 20260905031904 | 58 | 225 | 0.0 | 0.0 | 0.00 | 0.00 | 0.00 | 42 | 1017.3 |
| 20260905030405 | 59 | 225 | 0.0 | 0.0 | 0.00 | 0.00 | 0.00 | 42 | 1017.2 |
| 20260905025905 | 59 | 225 | 0.0 | 0.0 | 0.00 | 0.00 | 0.00 | 42 | 1017.1 |
| 20260905025404 | 60 | 225 | 0.0 | 0.0 | 0.00 | 0.00 | 0.00 | 41 | 1017.1 |
| 20260905023904 | 62 | 225 | 0.0 | 0.0 | 0.00 | 0.00 | 0.00 | 39 | 1016.9 |
| 20260905023404 | 63 | 225 | 0.0 | 0.0 | 0.00 | 0.00 | 0.00 | 39 | 1016.8 |
| 20260905022905 | 64 | 225 | 0.0 | 0.0 | 0.00 | 0.00 | 0.00 | 29 | 1016.7 |
| 20260905022404 | 64 | 225 | 0.0 | 0.0 | 0.00 | 0.00 | 0.00 | 29 | 1016.6 |
| 20260905021904 | 65 | 225 | 0.0 | 0.0 | 0.00 | 0.00 | 0.00 | 28 | 1016.5 |
| 20260905021404 | 66 | 225 | 0.0 | 0.0 | 0.00 | 0.00 | 0.00 | 28 | 1016.5 |
| 20260905020904 | 67 | 225 | 0.0 | 0.0 | 0.00 | 0.00 | 0.00 | 29 | 1016.4 |
| 20260905020404 | 68 | 225 | 0.0 | 0.0 | 0.00 | 0.00 | 0.00 | 28 | 1016.3 |
| 20260905015904 | 68 | 225 | 0.0 | 0.0 | 0.00 | 0.00 | 0.00 | 27 | 1016.2 |
| 20260905015404 | 69 | 225 | 0.0 | 0.0 | 0.00 | 0.00 | 0.00 | 27 | 1016.2 |
| 20260905014904 | 70 | 225 | 0.0 | 0.0 | 0.00 | 0.00 | 0.00 | 24 | 1016.2 |
| 20260905013905 | 72 | 225 | 0.0 | 0.0 | 0.00 | 0.00 | 0.00 | 22 | 1016.0 |
| 20260905013404 | 73 | 225 | 0.0 | 0.0 | 0.00 | 0.00 | 0.00 | 21 | 1016.0 |
| 20260905012904 | 74 | 225 | 0.0 | 0.0 | 0.00 | 0.00 | 0.00 | 20 | 1015.8 |
| 20260905012404 | 74 | 225 | 0.0 | 0.0 | 0.00 | 0.00 | 0.00 | 20 | 1015.8 |
| 20260905011904 | 75 | 225 | 0.0 | 0.0 | 0.00 | 0.00 | 0.00 | 18 | 1015.7 |
| 20260905011404 | 76 | 225 | 0.0 | 0.0 | 0.00 | 0.00 | 0.00 | 13 | 1015.6 |
| 20260905010904 | 76 | 225 | 0.0 | 0.0 | 0.00 | 0.00 | 0.00 | 11 | 1015.7 |
| 20260905005904 | 77 | 225 | 0.0 | 3.0 | 0.00 | 0.00 | 0.00 | 9 | 1015.6 |
| 20260905005404 | 78 | 221 | 1.0 | 3.0 | 0.00 | 0.00 | 0.00 | 9 | 1015.6 |
| 20260905004903 | 78 | 181 | 0.0 | 3.0 | 0.00 | 0.00 | 0.00 | 8 | 1015.6 |
| 20260905004404 | 78 | 136 | 1.0 | 3.0 | 0.00 | 0.00 | 0.00 | 7 | 1015.5 |
| 20260905003904 | 78 | 204 | 0.0 | 6.0 | 0.00 | 0.00 | 0.00 | 7 | 1015.6 |
| 20260905003404 | 79 | 209 | 1.0 | 7.0 | 0.00 | 0.00 | 0.00 | 7 | 1015.5 |
| 20260905002904 | 79 | 223 | 3.0 | 18.0 | 0.00 | 0.00 | 0.00 | 7 | 1015.5 |
| 20260905002404 | 79 | 226 | 5.0 | 12.0 | 0.00 | 0.00 | 0.00 | 6 | 1015.4 |
| 20260905001904 | 79 | 230 | 2.0 | 17.0 | 0.00 | 0.00 | 0.00 | 6 | 1015.3 |
| 20260905001404 | 80 | 239 | 3.0 | 16.0 | 0.00 | 0.00 | 0.00 | 6 | 1015.3 |
| 20260905000904 | 80 | 245 | 5.0 | 12.0 | 0.00 | 0.00 | 0.00 | 6 | 1015.3 |
| 20260905000404 | 80 | 234 | 3.0 | 12.0 | 0.00 | 0.00 | 0.00 | 6 | 1015.2 |
| 20260904235903 | 81 | 219 | 5.0 | 12.0 | 0.00 | 0.00 | 0.00 | 6 | 1015.2 |
| 20260904235404 | 81 | 170 | 3.0 | 14.0 | 0.00 | 0.00 | 0.00 | 6 | 1015.2 |
| 20260904234904 | 81 | 225 | 3.0 | 12.0 | 0.00 | 0.00 | 0.00 | 6 | 1015.2 |
| 20260904234404 | 82 | 127 | 3.0 | 9.0 | 0.00 | 0.00 | 0.00 | 5 | 1015.1 |
| 20260904233904 | 82 | 133 | 2.0 | 7.0 | 0.00 | 0.00 | 0.00 | 6 | 1015.4 |
| 20260904233404 | 82 | 151 | 1.0 | 7.0 | 0.00 | 0.00 | 0.00 | 5 | 1015.3 |
| 20260904232904 | 82 | 215 | 5.0 | 9.0 | 0.00 | 0.00 | 0.00 | 5 | 1015.4 |
| 20260904232404 | 82 | 152 | 3.0 | 13.0 | 0.00 | 0.00 | 0.00 | 5 | 1015.3 |
| 20260904231905 | 82 | 153 | 2.0 | 6.0 | 0.00 | 0.00 | 0.00 | 6 | 1015.3 |
| 20260904231404 | 82 | 233 | 1.0 | 3.0 | 0.00 | 0.00 | 0.00 | 5 | 1015.2 |
| 20260904230904 | 82 | 232 | 2.0 | 12.0 | 0.00 | 0.00 | 0.00 | 7 | 1015.2 |
| 20260904225404 | 81 | 227 | 5.0 | 13.0 | 0.00 | 0.00 | 0.00 | 7 | 1015.3 |
| 20260904224904 | 81 | 227 | 2.0 | 12.0 | 0.00 | 0.00 | 0.00 | 5 | 1015.2 |
| 20260904224404 | 82 | 237 | 6.0 | 12.0 | 0.00 | 0.00 | 0.00 | 5 | 1015.2 |
| 20260904223904 | 82 | 242 | 5.0 | 12.0 | 0.00 | 0.00 | 0.00 | 5 | 1015.2 |
| 20260904223404 | 82 | 229 | 5.0 | 9.0 | 0.00 | 0.00 | 0.00 | 5 | 1015.2 |
| 20260904222404 | 81 | 233 | 3.0 | 15.0 | 0.00 | 0.00 | 0.00 | 6 | 1015.2 |
| 20260904221904 | 81 | 277 | 8.0 | 12.0 | 0.00 | 0.00 | 0.00 | 4 | 1015.3 |
| 20260904221404 | 81 | 223 | 5.0 | 13.0 | 0.00 | 0.00 | 0.00 | 5 | 1015.2 |
| 20260904220904 | 80 | 252 | 3.0 | 9.0 | 0.00 | 0.00 | 0.00 | 7 | 1015.3 |
| 20260904220404 | 80 | 224 | 4.0 | 12.0 | 0.00 | 0.00 | 0.00 | 5 | 1015.3 |
| 20260904215904 | 80 | 235 | 3.0 | 14.0 | 0.00 | 0.00 | 0.00 | 6 | 1015.3 |
| 20260904215404 | 80 | 221 | 2.0 | 10.0 | 0.00 | 0.00 | 0.00 | 6 | 1015.3 |
| 20260904214904 | 80 | 230 | 8.0 | 13.0 | 0.00 | 0.00 | 0.00 | 6 | 1015.5 |
| 20260904214404 | 80 | 228 | 5.0 | 10.0 | 0.00 | 0.00 | 0.00 | 6 | 1015.4 |
| 20260904213904 | 80 | 229 | 3.0 | 9.0 | 0.00 | 0.00 | 0.00 | 6 | 1015.4 |
| 20260904211904 | 79 | 225 | 6.0 | 12.0 | 0.00 | 0.00 | 0.00 | 7 | 1015.4 |
| 20260904211404 | 79 | 249 | 3.0 | 8.0 | 0.00 | 0.00 | 0.00 | 6 | 1015.5 |
| 20260904210904 | 79 | 232 | 3.0 | 7.0 | 0.00 | 0.00 | 0.00 | 6 | 1015.5 |
| 20260904205904 | 79 | 231 | 5.0 | 12.0 | 0.00 | 0.00 | 0.00 | 7 | 1015.6 |
| 20260904205404 | 79 | 224 | 5.0 | 15.0 | 0.00 | 0.00 | 0.00 | 8 | 1015.7 |
| 20260904204904 | 79 | 233 | 6.0 | 13.0 | 0.00 | 0.00 | 0.00 | 7 | 1015.6 |
| 20260904204404 | 79 | 225 | 3.0 | 12.0 | 0.00 | 0.00 | 0.00 | 7 | 1015.7 |
| 20260904203904 | 79 | 229 | 7.0 | 14.0 | 0.00 | 0.00 | 0.00 | 7 | 1015.6 |
| 20260904203404 | 79 | 233 | 2.0 | 9.0 | 0.00 | 0.00 | 0.00 | 7 | 1015.6 |
| 20260904202904 | 79 | 231 | 5.0 | 10.0 | 0.00 | 0.00 | 0.00 | 8 | 1015.7 |
| 20260904202404 | 79 | 236 | 3.0 | 9.0 | 0.00 | 0.00 | 0.00 | 7 | 1015.7 |
| 20260904201904 | 79 | 230 | 6.0 | 12.0 | 0.00 | 0.00 | 0.00 | 6 | 1015.8 |
| 20260904201404 | 79 | 218 | 6.0 | 13.0 | 0.00 | 0.00 | 0.00 | 7 | 1015.7 |
| 20260904195904 | 79 | 236 | 8.0 | 14.0 | 0.00 | 0.00 | 0.00 | 6 | 1016.0 |
| 20260904195404 | 79 | 217 | 5.0 | 10.0 | 0.00 | 0.00 | 0.00 | 6 | 1015.9 |
| 20260904194404 | 78 | 223 | 3.0 | 10.0 | 0.00 | 0.00 | 0.00 | 6 | 1015.9 |
| 20260904193904 | 78 | 224 | 1.0 | 9.0 | 0.00 | 0.00 | 0.00 | 6 | 1016.0 |
| 20260904193404 | 78 | 238 | 6.0 | 13.0 | 0.00 | 0.00 | 0.00 | 7 | 1016.0 |
| 20260904192904 | 78 | 350 | 2.0 | 6.0 | 0.00 | 0.00 | 0.00 | 8 | 1015.9 |
| 20260904192404 | 78 | 265 | 0.0 | 5.0 | 0.00 | 0.00 | 0.00 | 10 | 1015.9 |
| 20260904191904 | 78 | 225 | 3.0 | 10.0 | 0.00 | 0.00 | 0.00 | 9 | 1016.1 |
| 20260904191404 | 78 | 176 | 1.0 | 9.0 | 0.00 | 0.00 | 0.00 | 7 | 1016.2 |